Location: Chena
(64.8152°N, 147.9227°W)
Time: 06:39:00
(UTC+00:00)

N. Korean satellite - Pass Details

Date: 28 January 2021
Orbit: 451 x 502 km, 97.2° (Epoch: 08 March)

Event Time Altitude Azimuth Distance (km) Brightness Sun altitude
Rises 03:04:22 0° 196° (SSW) 2,571 10.8 -10.2°
Reaches altitude 10° 03:06:42 10° 210° (SSW) 1,684 10.1 -10.4°
Maximum altitude 03:09:46 25° 267° (W) 1,011 9.1 -10.7°
Drops below altitude 10° 03:12:49 10° 325° (NW) 1,670 9.5 -11.0°
Sets 03:15:08 0° 339° (NNW) 2,544 10.2 -11.3°
